Hourly Data Report for September 06, 2017

All times are specified in Local Standard Time (LST). Add 1 hour to adjust for Daylight Saving Time where and when it is observed.

BATHURST A
NEW BRUNSWICK

47°37'47.000" N
65°44'20.000" W
58.80 m
8100505
71574
ZBF

Download Data

Hourly Data (September 2017)
Hourly Data Report for September 6, 2017
Temp Definition
°C
Dew Point Temp Definition
°C
Rel Hum Definition
%
Wind Dir Definition
10's deg

Wind Spd Definition
km/h
Visibility Definition
km
Stn Press Definition
kPa
Hmdx Definition


Wind Chill Definition


Weather Definition


TIME
00:00 Legend Double Dagger 16.9 16.1 95 10 3 12.9 100.25     Rain Showers
01:00 Legend Double Dagger 16.6 16.0 96 7 4 12.9 100.24     Rain Showers
02:00 Legend Double Dagger 16.5 16.1 97 0 1 12.9 100.30     Rain Showers
03:00 Legend Double Dagger 16.1 15.8 98 8 9 3.6 100.26     Rain,Fog
04:00 Legend Double Dagger 15.6 15.1 97 36 3 12.9 100.34     Rain
05:00 Legend Double Dagger 15.3 15.0 98 36 1 4.0 100.40     Rain,Fog
06:00 Legend Double Dagger 15.4 15.1 98 27 4 3.2 100.52     Rain,Fog
07:00 Legend Double Dagger 15.4 15.2 99 19 4 3.2 100.54     Fog
08:00 Legend Double Dagger 15.9 15.6 98 19 4 6.4 100.57     Fog
09:00 Legend Double Dagger 16.5 15.9 96 23 4 6.4 100.67     Fog
10:00 Legend Double Dagger 16.9 16.2 95 25 3 12.9 100.74     LegendNANA
11:00 Legend Double Dagger 17.4 16.4 94 12 3 16.1 100.72     Cloudy
12:00 Legend Double Dagger 17.4 16.5 94 13 3 6.4 100.75     Rain Showers,Fog
13:00 Legend Double Dagger 17.5 16.7 95 19 3 6.4 100.77     Rain Showers,Fog
14:00 Legend Double Dagger 17.4 17.0 97 2 5 3.2 100.76     Rain,Fog
15:00 Legend Double Dagger 16.4 16.1 98 4 3 1.2 100.81     Rain,Fog
16:00 Legend Double Dagger 16.7 16.3 97 3 5 4.8 100.75     Rain,Fog
17:00 Legend Double Dagger 16.6 16.1 97 4 5 3.2 100.80     Fog
18:00 Legend Double Dagger 16.5 16.1 98 7 5 1.6 100.77     Rain,Fog
19:00 Legend Double Dagger 15.8 15.6 99 3 3 0.8 100.73     Rain,Fog
20:00 Legend Double Dagger 15.7 15.5 99 36 1 0.8 100.82     Rain,Fog
21:00 Legend Double Dagger 15.7 15.4 98 36 2 1.6 100.78     Rain,Fog
22:00 Legend Double Dagger 15.8 15.5 98 36 1 1.6 100.78     Rain,Fog
23:00 Legend Double Dagger 15.8 15.5 98 36 2 0.8 100.77     Rain,Fog

Notes on Data Quality.

Legend

  • E = Estimated
  • M = Missing
  • NA = Not Available
  • ‡ = Partner data that is not subject to review by the National Climate Archives
Date modified: